This is the latest recevied weather packets stored in our database for station/object EA1CUE-WX. If no packets are shown the sender has not sent any weather packets the latest 10 day(s).
| Time | Temp. | Humidity | Pressure | Rain* | Wind** | Luminosity | Snow |
|---|---|---|---|---|---|---|---|
| 1777477724 | 12.22° C | 1% | 1007 hPa | 0 mm | - | - | - |
| 1777477424 | 12.22° C | 1% | 1007 hPa | 0 mm | - | - | - |
| 1777477124 | 12.78° C | 1% | 1006.9 hPa | 0 mm | - | - | - |
| 1777476824 | 12.78° C | 1% | 1006.8 hPa | 0 mm | - | - | - |
| 1777476524 | 13.33° C | 1% | 1006.7 hPa | 0 mm | - | - | - |
| 1777476224 | 13.33° C | 1% | 1006.7 hPa | 0 mm | - | - | - |
| 1777475924 | 13.33° C | 1% | 1006.6 hPa | 0 mm | - | - | - |
| 1777475624 | 12.78° C | 1% | 1006.7 hPa | 0 mm | - | - | - |
| 1777475324 | 12.22° C | 1% | 1006.7 hPa | 0 mm | - | - | - |
| 1777475024 | 12.22° C | 1% | 1006.7 hPa | 0 mm | - | - | - |
| 1777474724 | 11.67° C | 1% | 1006.6 hPa | 0 mm | - | - | - |
| 1777474424 | 11.67° C | 1% | 1006.7 hPa | 0 mm | - | - | - |
| 1777474124 | 11.67° C | 1% | 1006.8 hPa | 0 mm | - | - | - |
| 1777473824 | 11.67° C | 1% | 1006.8 hPa | 0.25 mm | - | - | - |
| 1777473524 | 11.11° C | 1% | 1006.8 hPa | 0.51 mm | - | - | - |
| 1777473224 | 11.11° C | 1% | 1006.7 hPa | 0.76 mm | - | - | - |
| 1777472924 | 11.11° C | 1% | 1006.7 hPa | 1.02 mm | - | - | - |
| 1777472624 | 11.11° C | 1% | 1006.6 hPa | 1.78 mm | - | - | - |
| 1777472324 | 11.11° C | 1% | 1006.6 hPa | 2.29 mm | - | - | - |
| 1777472024 | 11.11° C | 1% | 1006.4 hPa | 2.79 mm | - | - | - |
| 1777471724 | 11.11° C | 1% | 1006.2 hPa | 2.79 mm | - | - | - |
| 1777471424 | 11.11° C | 1% | 1006.1 hPa | 3.3 mm | - | - | - |
| 1777471124 | 11.11° C | 1% | 1006.2 hPa | 3.56 mm | - | - | - |
| 1777470824 | 11.11° C | 1% | 1006.2 hPa | 3.56 mm | - | - | - |
| 1777470524 | 11.11° C | 1% | 1006.2 hPa | 3.56 mm | - | - | - |
* Rain latest hour (hover to see other rain measurements)
** Current wind speed in m/s (hover to see current wind gust speed)